This demonstration page uses our WeatherBlox Daily Observations layout. Learn more.

Left ArrowRight Arrow

Hourly Observations for October 22, 2022

Temp ( °F °C ) Dew Point ( °F °C ) Humidity (%) Winds ( mph kmh ) Pressure ( in mb ) Visibility ( mi km ) Precip ( " mm )
12:51 am 00:51 Clear 61 16.1 47 8.3 60 60 E 6 9 29.79 1009 10 16 0.00 0.00
1:51 am 01:51 Clear 61 16.1 47 8.3 60 60 E 5 7 29.78 1008 10 16 0.00 0.00
2:51 am 02:51 Mostly Cloudy 59 15 48 8.9 67 67 E 6 9 29.77 1008 10 16 0.00 0.00
3:51 am 03:51 Cloudy 60 15.6 48 8.9 64 64 ESE 5 7 29.77 1008 10 16 0.00 0.00
4:51 am 04:51 Mostly Cloudy 58 14.4 48 8.9 70 70 E 3 6 29.77 1008 10 16 0.00 0.00
5:51 am 05:51 Cloudy 61 16.1 49 9.4 64 64 E 6 9 29.78 1008 10 16 0.00 0.00
6:51 am 06:51 Cloudy 63 17.2 49 9.4 60 60 E 6 9 29.78 1008 10 16 0.00 0.00
7:51 am 07:51 Cloudy 66 18.9 49 9.4 54 54 ESE 6 9 29.79 1009 10 16 0.00 0.00
8:51 am 08:51 Mostly Cloudy 72 22.2 49 9.4 44 44 E 6 9 29.79 1009 10 16 0.00 0.00
9:51 am 09:51 Cloudy 75 23.9 49 9.4 40 40 E 3 6 29.77 1008 10 16 0.00 0.00
10:51 am 10:51 Partly Cloudy 78 25.6 50 10 37 37 Calm 29.74 1007 10 16 0.00 0.00
11:51 am 11:51 Mostly Cloudy 79 26.1 51 10.6 38 38 VRB 3 6 29.71 1006 10 16 0.00 0.00
12:51 pm 12:51 Partly Cloudy 80 26.7 52 11.1 38 38 NNE 5 7 29.66 1004 10 16 0.00 0.00
1:51 pm 13:51 Mostly Sunny 81 27.2 51 10.6 35 35 VRB 5 7 29.61 1003 10 16 0.00 0.00
2:51 pm 14:51 Sunny 82 27.8 51 10.6 34 34 W 6 9 29.59 1002 10 16 0.00 0.00
3:51 pm 15:51 Partly Cloudy 80 26.7 51 10.6 36 36 Calm 29.58 1002 10 16 0.00 0.00
4:51 pm 16:51 Sunny 79 26.1 51 10.6 38 38 SSE 6 9 29.56 1001 10 16 0.00 0.00
5:51 pm 17:51 Partly Cloudy 75 23.9 52 11.1 45 45 Calm 29.56 1001 10 16 0.00 0.00
6:21 pm 18:21 Partly Cloudy with Nearby Thunderstorms 74 23.3 52 11.1 46 46 E 3 6 29.52 1000 10 16 0.00 0.00
6:36 pm 18:36 Partly Cloudy 74 23.3 52 11.1 46 46 S 8 13 29.52 1000 10 16 0.00 0.00
6:51 pm 18:51 Partly Cloudy 74 23.3 52 11.1 46 46 SE 5 7 29.56 1001 10 16 0.00 0.00
7:51 pm 19:51 Mostly Clear with Light Rain 75 23.9 52 11.1 45 45 SSW 21 33 29.55 1001 10 16 0.01 0.13
8:51 pm 20:51 Partly Cloudy 76 24.4 50 10 40 40 WSW 7 11 29.56 1001 10 16 0.01 0.13
9:51 pm 21:51 Partly Cloudy 75 23.9 50 10 41 41 SSW 14 22 29.57 1002 10 16 0.00 0.00
10:51 pm 22:51 Clear 69 20.6 54 12.2 59 59 WSW 6 9 29.59 1002 10 16 0.00 0.00
11:51 pm 23:51 Mostly Clear 71 21.7 52 11.1 51 51 VRB 5 7 29.58 1002 10 16 0.00 0.00

Powered by AerisWeather